This is the latest recevied weather packets stored in our database for station/object WW3TRG. If no packets are shown the sender has not sent any weather packets the latest 10 day(s).
| Time | Temp. | Humidity | Pressure | Rain* | Wind** | Luminosity | Snow |
|---|---|---|---|---|---|---|---|
| 1777476682 | 13.89° C | 66% | 1013.7 hPa | 0 mm | - | 136 W/m² | - |
| 1777476378 | 14.44° C | 67% | 1013.7 hPa | 0 mm | - | 132 W/m² | - |
| 1777476075 | 15° C | 64% | 1013.5 hPa | 0 mm | - | 127 W/m² | - |
| 1777475769 | 14.44° C | 67% | 1013.5 hPa | 0 mm | - | 131 W/m² | - |
| 1777475467 | 13.89° C | 67% | 1013.7 hPa | 0 mm | - | 120 W/m² | - |
| 1777475162 | 13.89° C | 67% | 1013.8 hPa | 0 mm | - | 122 W/m² | - |
| 1777474859 | 14.44° C | 68% | 1013.8 hPa | 0 mm | - | 148 W/m² | - |
| 1777474554 | 13.89° C | 66% | 1013.8 hPa | 0 mm | - | 175 W/m² | - |
| 1777474251 | 13.89° C | 66% | 1013.8 hPa | 0 mm | - | 127 W/m² | - |
| 1777473948 | 13.89° C | 67% | 1013.6 hPa | 0 mm | - | 187 W/m² | - |
| 1777473646 | 13.89° C | 67% | 1013.6 hPa | 0 mm | - | 135 W/m² | - |
| 1777473342 | 13.89° C | 67% | 1013.7 hPa | 0 mm | - | 154 W/m² | - |
| 1777473038 | 13.33° C | 67% | 1013.7 hPa | 0 mm | - | 177 W/m² | - |
| 1777472734 | 13.33° C | 68% | 1013.8 hPa | 0 mm | - | 174 W/m² | - |
| 1777472431 | 13.33° C | 72% | 1013.8 hPa | 0 mm | - | 124 W/m² | - |
| 1777472129 | 12.78° C | 71% | 1013.9 hPa | 0 mm | - | 102 W/m² | - |
| 1777471828 | 12.78° C | 71% | 1013.8 hPa | 0 mm | - | 95 W/m² | - |
| 1777471526 | 13.33° C | 70% | 1013.8 hPa | 0 mm | - | 86 W/m² | - |
| 1777471222 | 13.33° C | 69% | 1013.6 hPa | 0 mm | - | 121 W/m² | - |
| 1777470919 | 12.78° C | 71% | 1013.7 hPa | 0 mm | - | 144 W/m² | - |
| 1777470616 | 12.78° C | 73% | 1013.6 hPa | 0 mm | - | 131 W/m² | - |
| 1777470312 | 12.78° C | 73% | 1013.9 hPa | 0 mm | - | 121 W/m² | - |
| 1777470009 | 12.78° C | 72% | 1013.9 hPa | 0 mm | - | 72 W/m² | - |
| 1777469704 | 12.78° C | 73% | 1013.8 hPa | 0 mm | - | 87 W/m² | - |
| 1777469400 | 12.78° C | 76% | 1013.9 hPa | 0 mm | - | 88 W/m² | - |
* Rain latest hour (hover to see other rain measurements)
** Current wind speed in m/s (hover to see current wind gust speed)